Location: Tucson
(32.2217°N, 110.9265°W)
Time: 06:35:44
(UTC-07:00)

Tiros 1 - Pass Details

Date: 02 November 2021
Orbit: 629 x 664 km, 48.4° (Epoch: 26 November)

Event Time Altitude Azimuth Distance (km) Brightness Sun altitude
Rises 12:21:42 0° 316° (NW) 2,977 10.3 42.6°
Reaches altitude 10° 12:24:15 10° 326° (NW) 2,059 9.5 42.6°
Maximum altitude 12:28:33 33° 31° (NNE) 1,081 8.2 42.5°
Drops below altitude 10° 12:32:48 10° 96° (E) 2,033 9.8 42.4°
Sets 12:35:18 0° 106° (ESE) 2,934 10.6 42.3°
